Terug naar catalogus

STARLINK-30277

ActiefCommunicatieVLEO
NORAD 57645·PAYLOAD·🇺🇸 United States

Gelanceerd Aug 17, 2023 vanaf Cape Canaveral Space Force Station

Loading…

Volgende Passages (komende 24 uur)

TLE

VersSource: CelesTrak SupGP

Epoch: Sep 14, 2026, 21:41 UTC

1 57645C 23122P   26257.90395833 -.00073690  00000+0 -26688-2 0  2574
2 57645  43.0031 321.8191 0001809 266.1057 141.4751 15.27617897    17

Volg STARLINK-30277 in realtime met AllMySat

Download on the App Store